Weather History for West Palm Beach, FL

Change the Weather History Date:

Wednesday, January 12, 2011

  Actual Average Record
Temperature  
Mean Temperature 58 °F 65 °F  
Max Temperature 66 °F 74 °F 86 °F (1901)
Min Temperature 49 °F 57 °F 29 °F (1982)
Degree Days  
Heating Degree Days 7 3  
Month to date heating degree days 18 36  
Since 1 July heating degree days 229 107  
Cooling Degree Days 0 3  
Month to date cooling degree days 51 43  
Year to date cooling degree days 51 43  
Growing Degree Days 8 (Base 50)    
Moisture  
Dew Point 44 °F    
Average Humidity 62    
Maximum Humidity 93    
Minimum Humidity 30    
Precipitation  
Precipitation 0.00 in 0.11 in 4.28 in (1889)
Month to date precipitation 0.39 1.31  
Year to date precipitation 0.39 1.31  
Snow  
Snow 0.00 in - - ()
Month to date snowfall 0.0  
Since 1 July snowfall 0.0  
Snow Depth 0.00 in    
Sea Level Pressure  
Sea Level Pressure 30.23 in    
Wind  
Wind Speed 12 mph (NNW)    
Max Wind Speed 18 mph    
Max Gust Speed 23 mph    
Visibility 10 miles    
Events      
T = Trace of Precipitation, MM = Missing Value Source: NWS Daily Summary

Daily Weather History Graph

Daily Weather History Graph

Search for Another Location

Airport:

Trip Planner

Search our weather history database for the weather conditions in past years. The results will help you decide how hot, cold, wet, or windy it might be!

Date:

Astronomy

Jan. 12, 2011 Rise Set
Actual Time 7:10 AM EST 5:46 PM EST
Civil Twilight 6:45 AM EST 6:12 PM EST
Nautical Twilight 6:16 AM EST 6:40 PM EST
Astronomical Twilight 5:48 AM EST 7:08 PM EST
Moon 11:48 AM EST (1/12) 12:20 AM EST (1/12)
Length of Visible Light 11h 26m
Length of Day
10h 36m
First Quarter, 52% of the Moon is Illuminated
Jan 12
First Quarter
Jan 19
Full
Jan 26
Last Quarter
Feb 2
New
Feb 11
First Quarter

Hourly Weather History & Observations

Time (EST) Temp. Dew Point Humidity Pressure Visibility Wind Dir Wind Speed Gust Speed Precip Events Conditions
12:15 AM 66.2 °F 64.4 °F 94% 30.16 in 8.0 mi NNW 9.2 mph - N/A   Mostly Cloudy
12:53 AM 64.9 °F 62.1 °F 90% 30.16 in 10.0 mi North 12.7 mph - N/A   Overcast
1:09 AM 64.4 °F 60.8 °F 88% 30.16 in 10.0 mi NNW 13.8 mph - N/A   Overcast
1:53 AM 63.0 °F 59.0 °F 87% 30.17 in 10.0 mi North 12.7 mph - N/A   Overcast
2:39 AM 62.6 °F 55.4 °F 77% 30.16 in 10.0 mi North 12.7 mph - N/A   Overcast
2:53 AM 62.1 °F 55.0 °F 78% 30.16 in 10.0 mi North 10.4 mph - N/A   Mostly Cloudy
3:53 AM 60.1 °F 57.0 °F 90% 30.16 in 10.0 mi NNW 9.2 mph - N/A   Partly Cloudy
4:14 AM 59.0 °F 55.4 °F 88% 30.17 in 10.0 mi North 9.2 mph - N/A   Scattered Clouds
4:53 AM 57.9 °F 55.0 °F 90% 30.18 in 10.0 mi North 10.4 mph - N/A   Scattered Clouds
5:27 AM 57.2 °F 53.6 °F 88% 30.20 in 10.0 mi NNW 10.4 mph - N/A   Mostly Cloudy
5:53 AM 57.0 °F 53.1 °F 87% 30.20 in 10.0 mi NNW 11.5 mph - N/A   Mostly Cloudy
6:13 AM 55.4 °F 51.8 °F 88% 30.21 in 10.0 mi NNW 15.0 mph - N/A   Mostly Cloudy
6:44 AM 55.4 °F 51.8 °F 88% 30.22 in 10.0 mi NNW 13.8 mph - N/A   Mostly Cloudy
6:53 AM 55.0 °F 51.1 °F 86% 30.23 in 10.0 mi NNW 12.7 mph - N/A   Mostly Cloudy
7:53 AM 52.0 °F 48.0 °F 86% 30.27 in 10.0 mi NNW 16.1 mph - N/A   Mostly Cloudy
7:57 AM 51.8 °F 48.2 °F 88% 30.27 in 10.0 mi NNW 12.7 mph - N/A   Mostly Cloudy
8:23 AM 53.6 °F 48.2 °F 82% 30.27 in 10.0 mi NW 15.0 mph - N/A   Scattered Clouds
8:53 AM 53.1 °F 46.9 °F 80% 30.29 in 10.0 mi NW 12.7 mph - N/A   Scattered Clouds
9:53 AM 55.9 °F 45.0 °F 67% 30.30 in 10.0 mi NNW 16.1 mph 21.9 mph N/A   Mostly Cloudy
10:53 AM 57.9 °F 44.1 °F 60% 30.30 in 10.0 mi NNW 15.0 mph - N/A   Mostly Cloudy
11:53 AM 60.1 °F 41.0 °F 49% 30.27 in 10.0 mi North 15.0 mph - N/A   Scattered Clouds
12:53 PM 62.1 °F 37.9 °F 41% 30.23 in 10.0 mi North 11.5 mph - N/A   Mostly Cloudy
1:53 PM 62.1 °F 32.0 °F 32% 30.21 in 10.0 mi North 12.7 mph - N/A   Scattered Clouds
2:53 PM 63.0 °F 30.0 °F 29% 30.20 in 10.0 mi North 15.0 mph 20.7 mph N/A   Mostly Cloudy
3:53 PM 60.8 °F 30.2 °F 31% 30.21 in 10.0 mi North 12.7 mph - N/A   Mostly Cloudy
4:53 PM 61.0 °F 30.9 °F 32% 30.22 in 10.0 mi North 10.4 mph - N/A   Scattered Clouds
5:53 PM 57.9 °F 33.1 °F 39% 30.24 in 10.0 mi North 5.8 mph - N/A   Mostly Cloudy
6:53 PM 55.9 °F 30.9 °F 39% 30.25 in 10.0 mi NNW 6.9 mph - N/A   Scattered Clouds
7:53 PM 55.0 °F 33.1 °F 43% 30.27 in 10.0 mi NNW 5.8 mph - N/A   Scattered Clouds
8:53 PM 53.1 °F 26.1 °F 35% 30.28 in 10.0 mi NNW 13.8 mph - N/A   Scattered Clouds
9:53 PM 51.1 °F 26.1 °F 38% 30.29 in 10.0 mi NNW 9.2 mph - N/A   Scattered Clouds
10:53 PM 50.0 °F 25.0 °F 38% 30.30 in 10.0 mi NNW 10.4 mph - N/A   Scattered Clouds
11:53 PM 48.9 °F 25.0 °F 39% 30.29 in 10.0 mi NW 10.4 mph - N/A   Partly Cloudy